Temp_Advection
nan nan nan nan nan nan nan nan nan nan nan nan nan nan nan nan nan nan nan nan nan nan nan nan nan nan nan nan nan nan nan nan nan nan nan nan nan nan nan nan nan nan
nan -1 0 0 0 0 0 0 0 0 -0 -0 0 1 1 1 0 0 0 0 0 0 -0 -0 -0 -0 -0 -0 0 0 0 0 -0 0 0 -0 -0 -0 0 0 0 nan
nan -0 0 0 -0 0 0 1 1 0 -0 -0 0 1 1 0 0 0 0 0 0 -0 -0 -0 -0 -0 -0 0 0 0 0 0 -0 0 0 -0 -0 -0 -0 -0 0 nan
nan 0 0 -0 -0 0 1 1 1 -0 -1 -1 0 1 0 0 0 0 0 0 0 0 0 0 0 0 0 0 0 0 0 0 -0 0 0 -0 0 0 -0 0 0 nan
nan 0 0 -0 0 1 1 1 1 -0 -1 -0 0 0 -0 0 1 0 0 0 0 0 0 0 0 0 0 0 0 0 0 -0 0 0 -0 0 0 0 0 0 0 nan
nan 0 0 0 1 1 1 1 1 0 -0 -0 0 -0 -0 0 0 0 0 0 0 0 0 0 0 0 0 0 0 0 -0 0 0 0 -0 0 0 0 0 0 0 nan
nan 1 0 1 1 2 2 2 1 0 -1 -1 -0 -0 0 0 0 0 1 1 0 0 0 0 0 0 0 1 0 0 -0 0 0 0 0 0 0 0 0 0 0 nan
nan 1 1 1 2 3 2 2 0 -1 -2 -1 0 0 0 0 0 1 1 0 0 0 0 1 1 1 1 1 0 -0 -0 0 0 0 0 0 0 -0 0 0 0 nan
nan 2 2 2 3 3 2 0 -0 -1 -1 -1 0 0 0 1 1 1 1 0 0 0 1 1 0 1 1 1 0 -0 -0 0 0 0 0 0 -0 -0 -0 0 -0 nan
nan 4 4 2 1 1 1 0 0 -0 -1 -1 -0 0 0 1 1 1 1 0 0 0 1 0 0 1 1 0 0 -0 -0 0 0 0 0 0 -0 -0 -0 0 -0 nan
nan 5 0 -1 -0 0 1 1 1 0 -1 -1 -0 0 0 0 1 2 1 0 0 0 0 0 0 1 1 0 0 -0 -0 0 0 0 0 -0 -0 -0 -0 -0 -0 nan
nan -1 -4 -2 -0 0 2 1 0 1 0 -1 -0 -0 -1 -0 2 2 1 0 0 0 0 0 0 1 1 0 0 0 -0 0 0 0 0 -0 -0 -0 -0 -0 -0 nan
nan -6 -4 -1 1 1 2 1 1 1 0 -1 -1 -1 -0 1 2 2 1 1 0 0 0 0 1 1 1 0 0 -0 -0 0 0 0 -0 -0 -0 -0 -0 -0 -0 nan
nan -2 0 2 4 4 3 2 2 2 0 -1 -1 -1 0 2 3 2 1 0 0 0 1 1 1 1 0 0 -0 -0 -0 -0 0 0 -0 -0 -0 -0 -0 0 0 nan
nan 2 2 4 6 5 3 3 3 2 0 -1 -1 -0 1 2 3 2 1 0 -0 0 1 1 1 0 0 -0 -0 0 0 -0 0 0 0 -0 -0 -0 -0 0 0 nan
nan 1 3 5 5 4 4 3 2 1 0 -0 -0 0 2 3 3 1 1 1 -0 0 0 0 0 0 0 0 0 0 0 -0 0 0 0 -0 -0 -0 -0 -0 0 nan
nan 0 2 5 5 5 3 0 -1 -0 0 0 -1 1 3 3 2 1 1 1 0 0 0 0 0 0 0 0 0 0 0 -0 0 0 0 -0 -0 -0 -0 0 0 nan
nan 1 3 6 5 1 -2 -3 -1 -0 1 0 -1 1 4 4 3 1 1 1 1 0 0 0 0 0 0 -0 -0 0 0 -0 0 0 0 -0 -0 -0 0 0 1 nan
nan 3 3 3 1 -2 -3 -0 -0 -0 1 1 0 2 4 5 3 1 1 2 1 -0 0 0 -0 0 0 -0 -1 -0 0 0 0 0 0 -0 -0 0 0 0 1 nan
nan 2 0 -1 0 1 1 1 -1 -0 2 3 3 4 5 4 2 -0 1 1 -1 -1 1 -0 -1 -0 0 -0 -1 -0 0 1 0 0 0 0 0 0 0 0 1 nan
nan 1 0 -0 1 3 2 0 -1 1 4 6 5 3 3 3 -0 -1 1 1 -1 -0 1 -1 -1 0 0 -0 -0 -1 -0 0 0 0 0 0 0 -0 0 0 1 nan
nan 1 1 1 1 2 2 1 1 2 5 6 3 1 1 1 -2 -2 1 0 -1 -0 -1 -1 1 1 -0 -0 -0 -1 -0 0 0 0 0 0 0 0 0 0 1 nan
nan 1 1 1 1 1 2 2 3 3 5 4 1 -0 1 -1 -3 -0 2 0 -1 -1 -0 1 2 0 -1 -0 -1 -0 0 -0 0 0 0 0 0 0 1 0 0 nan
nan 1 1 1 2 1 2 3 4 3 3 1 -0 -1 -1 -3 -2 1 1 -0 -0 0 1 1 1 -0 -0 -0 -1 -1 -0 -0 0 0 0 -0 0 0 0 0 0 nan
nan 1 1 2 2 1 2 2 2 0 -0 -0 -2 -2 -2 -1 1 1 1 1 1 0 -0 0 -0 -0 0 -0 -0 -1 -1 0 1 1 1 0 -0 0 0 0 0 nan
nan nan nan nan nan nan nan nan nan nan nan nan nan nan nan nan nan nan nan nan nan nan nan nan nan nan nan nan nan nan nan nan nan nan nan nan nan nan nan nan nan nan
Wind_Speed
33 33 32 30 29 28 26 23 21 21 21 20 19 18 17 15 14 14 14 12 10 11 11 11 10 9 9 8 8 8 9 10 11 11 11 10 9 9 9 8 8 8
35 34 33 31 31 29 26 24 22 21 20 19 19 17 16 15 15 15 13 12 10 10 11 11 10 10 10 9 9 10 10 11 12 13 13 12 12 11 10 10 10 10
37 36 34 33 32 30 27 24 22 21 20 19 18 17 16 16 16 15 14 13 11 11 12 11 10 11 11 11 11 11 12 12 13 14 15 15 15 14 13 12 12 12
39 37 36 35 33 30 27 25 24 22 21 20 19 18 17 17 17 16 16 14 12 12 13 12 12 12 13 12 12 12 12 13 13 15 16 17 16 16 15 14 13 13
39 38 37 36 34 30 28 27 25 23 22 21 20 19 19 19 18 18 17 16 14 14 14 14 14 14 15 14 13 13 13 13 14 14 16 17 17 16 15 14 14 14
40 39 38 37 35 32 30 28 25 23 21 21 20 20 20 20 20 19 19 17 16 16 16 16 16 16 16 15 14 14 14 14 14 14 15 16 15 15 15 15 15 15
41 41 40 39 37 34 32 29 25 22 20 19 20 21 21 21 21 21 20 19 18 17 18 18 18 17 17 16 14 14 14 14 13 13 14 14 13 13 13 14 15 15
43 43 42 40 39 36 33 30 27 23 21 21 22 22 21 22 22 22 20 20 19 19 19 20 20 19 18 16 15 14 13 13 13 12 12 12 12 13 13 14 14 15
45 44 43 41 39 37 35 33 29 25 24 24 23 22 22 23 24 23 22 21 20 20 21 21 22 21 18 16 15 15 14 13 12 12 12 12 13 13 13 13 14 14
46 45 42 39 38 38 38 35 31 27 26 25 23 21 22 25 26 24 23 22 21 22 22 23 23 21 17 16 16 15 15 14 12 12 12 13 14 13 13 12 12 13
47 44 41 40 41 42 42 37 32 30 27 24 23 22 22 25 27 26 24 23 23 23 24 24 23 20 17 16 16 16 15 14 13 13 13 13 13 13 13 13 13 12
45 45 44 45 46 46 44 39 34 32 28 25 24 23 23 26 28 27 24 24 24 24 24 24 22 19 17 16 16 16 16 16 15 14 14 13 13 13 13 13 13 13
48 51 51 50 51 51 48 43 39 35 32 29 28 27 27 27 28 27 25 24 25 25 25 24 21 19 18 17 16 17 17 17 16 15 14 14 13 13 14 14 15 15
53 56 54 54 55 54 50 47 42 38 35 33 31 31 31 30 28 26 25 24 25 26 25 23 21 20 19 18 17 18 18 18 18 17 16 14 14 14 15 16 17 17
53 54 53 52 53 52 49 47 42 38 37 37 36 34 33 33 29 25 23 25 26 26 25 23 22 22 20 19 18 18 19 19 19 18 16 15 15 16 16 17 18 18
48 49 49 48 48 50 50 47 42 38 39 41 41 38 36 37 32 24 22 25 26 26 26 24 23 22 20 19 18 18 19 19 19 19 17 17 17 17 17 18 18 19
44 46 47 47 45 46 48 48 46 45 45 44 44 43 41 39 34 26 23 24 25 26 26 24 24 23 21 20 19 18 18 19 20 19 19 18 18 19 19 19 20 20
42 43 44 42 37 36 41 45 49 51 52 50 48 46 45 42 36 28 23 22 23 25 26 25 25 24 22 21 20 19 19 20 21 20 20 20 20 20 21 23 24 24
39 38 38 38 34 33 37 44 49 52 53 54 51 46 43 39 35 30 24 20 23 26 27 27 27 25 24 23 22 21 21 21 22 21 20 20 21 23 24 27 29 29
35 36 36 37 38 38 38 41 47 51 53 54 51 45 39 33 31 32 26 20 24 29 28 28 28 27 26 25 23 22 22 23 23 22 22 22 23 25 26 28 30 30
32 34 36 36 37 39 37 37 42 49 54 53 47 42 38 32 29 30 27 23 28 31 28 29 30 29 27 26 24 23 22 23 24 23 24 25 25 26 26 26 27 25
28 31 33 34 35 37 37 36 39 44 51 51 42 36 37 32 27 28 29 28 30 30 30 32 32 29 28 26 24 23 23 24 25 26 27 27 26 26 26 25 24 22
23 26 29 31 33 34 34 35 38 43 50 50 42 38 40 36 29 30 33 31 30 32 34 33 30 28 27 26 26 26 25 25 27 28 28 28 28 28 26 23 22 20
19 22 25 27 29 31 32 33 36 41 45 46 44 42 41 37 33 36 38 35 33 35 33 31 29 28 28 29 30 29 27 27 28 28 27 28 29 26 22 21 21 20
16 19 21 24 26 28 28 30 33 36 36 38 40 38 36 36 37 39 40 35 32 31 31 30 29 28 29 31 31 28 27 28 29 28 27 28 27 23 20 19 20 21
13 16 19 23 24 25 26 28 32 33 33 34 34 33 32 34 36 36 34 30 28 29 30 29 28 28 29 29 27 26 27 28 29 28 27 26 23 19 18 19 21 22
Wind_Direction
231 231 231 232 233 234 236 240 244 247 249 250 250 251 252 253 253 250 249 245 240 236 232 231 233 236 238 239 242 241 238 235 235 240 241 242 247 248 250 256 260 264
230 230 230 231 232 232 233 236 240 244 248 250 250 252 252 251 250 247 243 239 237 232 225 224 231 238 239 240 242 242 239 238 241 246 246 248 255 257 259 265 269 272
230 229 229 230 231 231 232 234 237 241 245 248 248 248 248 248 248 244 240 237 236 231 225 223 230 237 238 240 240 241 242 243 247 253 254 256 260 264 267 271 275 276
230 229 229 230 230 230 231 234 236 238 241 243 243 243 244 246 246 242 240 240 237 231 227 226 230 234 235 235 235 239 243 247 250 254 259 262 264 267 269 272 273 273
231 230 230 230 229 229 231 233 236 239 242 243 242 241 243 245 245 242 242 243 240 234 230 229 231 232 232 231 233 238 241 244 248 251 256 260 263 266 268 269 269 270
232 232 232 232 230 229 231 233 235 239 244 246 243 243 245 246 246 246 247 247 243 236 233 233 233 232 233 233 236 240 241 241 243 248 254 258 260 262 263 264 267 271
233 232 232 233 232 232 233 235 236 239 246 250 249 247 249 250 250 248 247 247 243 236 233 234 235 234 235 237 241 245 244 242 244 248 253 255 256 259 261 265 270 273
234 233 233 234 234 234 235 236 236 237 240 244 248 250 252 253 253 250 247 245 240 234 232 234 234 235 236 239 245 248 247 245 247 249 249 250 254 260 266 270 273 275
237 237 236 236 237 238 239 237 235 234 235 238 242 247 252 254 252 249 247 245 239 234 232 233 234 233 236 241 247 250 249 247 247 247 247 252 258 263 267 269 271 275
240 240 238 238 239 241 241 239 237 236 237 238 240 244 249 252 251 248 246 243 238 235 233 231 232 233 236 243 248 250 250 248 245 246 249 254 260 262 263 265 269 274
242 240 238 237 238 240 240 239 237 238 239 239 240 243 249 252 250 246 243 239 236 235 234 231 231 233 237 243 250 252 251 248 246 247 252 256 259 261 261 263 267 271
240 238 237 235 235 238 239 238 236 237 238 239 241 243 246 250 251 246 240 238 237 234 232 232 232 234 238 242 249 252 251 250 249 249 253 257 261 262 263 264 265 270
239 241 240 234 231 233 235 234 234 235 232 232 237 240 238 241 247 247 241 237 237 235 232 232 233 236 238 242 246 250 252 253 252 251 253 257 260 262 262 263 266 270
243 246 244 236 231 230 233 234 232 232 231 229 232 235 234 235 240 242 242 239 236 235 234 234 236 238 239 242 246 250 254 255 254 253 254 256 259 261 262 263 266 272
248 248 248 244 233 228 233 238 233 232 233 231 231 233 232 234 235 231 234 240 238 236 236 235 237 239 241 243 248 252 255 257 256 253 253 256 259 261 264 266 270 277
251 252 252 248 235 223 227 236 237 238 239 234 232 233 231 231 230 225 228 237 238 238 238 238 239 242 244 246 250 254 257 257 254 252 252 256 259 262 266 270 274 279
253 253 254 252 238 220 219 228 232 235 241 238 232 232 231 226 223 221 227 233 235 238 241 242 244 245 248 251 253 255 257 254 251 252 254 257 261 265 268 271 275 280
254 257 257 251 233 210 213 226 229 229 235 236 231 229 230 225 220 220 224 229 233 239 243 246 248 250 251 254 254 254 255 252 250 253 257 262 268 272 275 278 278 276
257 256 252 246 237 227 225 227 228 228 231 232 229 227 226 222 217 215 219 225 230 235 242 248 252 253 253 255 255 253 252 251 252 255 261 266 273 277 281 284 283 280
257 253 251 253 254 251 241 230 228 228 228 228 227 224 220 216 212 212 217 224 225 228 239 247 248 250 253 255 257 255 252 251 253 257 263 268 273 278 281 284 285 287
257 255 257 260 260 256 249 241 235 230 224 223 222 217 212 209 210 214 218 221 219 223 233 240 241 248 254 256 256 255 252 251 254 257 263 268 273 279 284 284 284 285
260 260 259 260 260 257 253 248 241 231 224 222 218 212 209 208 209 213 215 218 220 221 225 231 238 249 254 252 253 255 253 252 255 260 264 269 274 281 284 283 282 282
264 264 263 262 261 260 259 255 244 229 222 220 216 211 212 212 212 211 210 214 220 219 220 228 239 247 247 247 252 256 256 257 261 265 269 272 278 282 281 278 278 280
268 268 269 268 264 261 259 252 236 221 215 214 213 213 214 216 217 214 208 209 214 217 221 233 242 244 245 252 256 255 256 261 264 266 271 277 282 282 277 275 277 279
272 274 271 265 260 257 252 239 224 215 212 211 213 216 217 217 215 210 205 206 213 220 226 235 240 242 248 256 259 256 257 263 264 266 274 281 282 279 275 275 278 280
278 276 266 258 256 257 252 237 222 216 216 215 212 210 210 209 205 203 205 213 222 226 230 238 247 253 257 259 259 257 260 262 264 269 278 280 275 272 274 279 282 285
Height
1537 1538 1539 1541 1542 1543 1544 1545 1545 1546 1546 1547 1547 1548 1548 1549 1550 1551 1553 1553 1554 1554 1555 1555 1556 1557 1557 1557 1558 1558 1559 1560 1561 1562 1562 1562 1562 1562 1562 1562 1562 1562
1534 1535 1536 1538 1539 1540 1541 1542 1543 1543 1544 1545 1546 1547 1548 1548 1549 1549 1550 1551 1551 1552 1553 1554 1554 1555 1556 1556 1557 1557 1558 1559 1560 1561 1561 1561 1561 1561 1561 1561 1561 1560
1530 1531 1533 1535 1536 1537 1538 1540 1540 1541 1542 1543 1544 1545 1546 1547 1548 1548 1548 1548 1549 1550 1551 1552 1553 1553 1554 1555 1555 1556 1556 1557 1558 1559 1560 1560 1560 1560 1560 1560 1559 1559
1527 1528 1530 1532 1533 1535 1537 1538 1539 1539 1541 1542 1543 1544 1545 1545 1546 1546 1546 1546 1547 1548 1549 1550 1551 1552 1553 1553 1554 1554 1555 1556 1557 1557 1558 1558 1559 1559 1559 1558 1558 1557
1524 1526 1528 1529 1531 1533 1534 1536 1537 1538 1539 1540 1541 1542 1542 1543 1544 1544 1545 1545 1546 1547 1548 1549 1550 1550 1551 1551 1552 1552 1553 1554 1554 1555 1555 1556 1557 1557 1557 1556 1556 1555
1522 1524 1526 1527 1529 1531 1532 1533 1535 1537 1539 1540 1540 1541 1541 1541 1541 1542 1543 1544 1545 1546 1547 1548 1549 1549 1549 1550 1550 1550 1550 1551 1551 1552 1552 1553 1554 1554 1554 1554 1554 1553
1519 1521 1522 1525 1527 1529 1530 1532 1535 1537 1538 1539 1540 1540 1540 1540 1541 1541 1542 1543 1544 1545 1546 1547 1547 1548 1548 1548 1549 1548 1548 1548 1549 1549 1550 1550 1551 1552 1552 1552 1552 1552
1515 1517 1519 1522 1524 1527 1529 1531 1533 1534 1535 1535 1537 1538 1538 1539 1540 1540 1541 1541 1542 1543 1544 1545 1545 1546 1547 1547 1547 1547 1547 1546 1547 1547 1547 1548 1549 1550 1550 1550 1550 1550
1512 1514 1517 1520 1523 1526 1527 1528 1530 1531 1531 1531 1532 1534 1536 1537 1538 1538 1539 1540 1540 1541 1541 1542 1543 1544 1545 1545 1545 1545 1545 1545 1545 1545 1545 1546 1547 1548 1548 1548 1548 1548
1508 1511 1515 1520 1523 1524 1524 1526 1528 1529 1530 1530 1530 1531 1532 1534 1535 1537 1538 1538 1538 1539 1539 1540 1541 1541 1542 1542 1543 1544 1544 1544 1543 1544 1544 1544 1545 1545 1546 1546 1546 1546
1505 1507 1513 1518 1519 1518 1519 1523 1526 1527 1529 1530 1530 1530 1531 1532 1533 1534 1535 1536 1536 1537 1538 1538 1539 1539 1540 1540 1541 1542 1542 1542 1542 1542 1542 1543 1543 1543 1544 1544 1544 1544
1500 1502 1507 1511 1511 1512 1514 1518 1521 1524 1527 1528 1528 1528 1529 1530 1531 1531 1532 1533 1534 1535 1536 1537 1537 1538 1538 1538 1540 1540 1541 1541 1541 1541 1541 1541 1541 1541 1541 1542 1542 1542
1493 1493 1496 1500 1502 1504 1507 1511 1514 1518 1521 1524 1525 1525 1524 1525 1527 1529 1530 1530 1532 1533 1534 1535 1536 1536 1536 1537 1538 1539 1539 1540 1540 1540 1539 1539 1539 1539 1539 1539 1540 1540
1485 1484 1487 1491 1494 1498 1503 1506 1509 1514 1516 1519 1520 1521 1520 1520 1522 1525 1528 1529 1530 1531 1533 1534 1535 1535 1535 1536 1536 1537 1537 1538 1538 1538 1537 1537 1537 1537 1537 1537 1537 1537
1480 1481 1483 1486 1489 1496 1505 1507 1509 1513 1515 1516 1517 1517 1517 1517 1517 1520 1524 1527 1529 1530 1532 1533 1533 1533 1534 1534 1535 1535 1535 1535 1535 1535 1535 1535 1535 1534 1534 1534 1534 1535
1478 1479 1481 1482 1485 1492 1502 1508 1511 1514 1514 1514 1513 1513 1513 1513 1513 1515 1519 1524 1527 1529 1530 1531 1532 1532 1533 1533 1533 1533 1533 1533 1533 1533 1533 1533 1533 1532 1532 1532 1532 1532
1476 1477 1477 1480 1481 1485 1494 1503 1509 1510 1509 1507 1507 1508 1508 1508 1508 1509 1514 1520 1524 1527 1529 1530 1531 1531 1532 1532 1532 1532 1532 1532 1531 1531 1531 1531 1530 1530 1530 1529 1529 1529
1474 1475 1477 1479 1482 1485 1490 1494 1497 1499 1499 1498 1500 1501 1502 1504 1504 1505 1510 1517 1521 1525 1527 1528 1529 1530 1531 1531 1531 1531 1531 1530 1529 1529 1529 1529 1529 1528 1527 1527 1526 1526
1472 1474 1477 1478 1479 1481 1484 1485 1486 1488 1490 1491 1495 1497 1499 1502 1502 1503 1508 1515 1519 1522 1524 1525 1527 1528 1529 1529 1529 1529 1529 1528 1528 1527 1527 1527 1526 1525 1524 1523 1523 1522
1470 1471 1473 1474 1474 1475 1478 1481 1483 1484 1485 1488 1491 1493 1496 1499 1500 1502 1507 1513 1517 1519 1521 1522 1523 1525 1526 1527 1527 1527 1527 1526 1526 1525 1525 1524 1523 1522 1521 1520 1519 1519
1466 1468 1468 1470 1471 1472 1474 1477 1478 1480 1482 1485 1485 1487 1491 1494 1496 1500 1506 1510 1512 1514 1516 1518 1519 1521 1524 1525 1525 1524 1524 1523 1523 1522 1522 1521 1520 1519 1518 1517 1516 1516
1463 1464 1465 1467 1469 1469 1470 1472 1473 1476 1479 1480 1480 1483 1486 1489 1492 1496 1500 1505 1508 1510 1512 1514 1515 1518 1520 1521 1521 1522 1521 1520 1520 1519 1518 1517 1516 1515 1515 1514 1513 1513
1461 1462 1463 1464 1465 1466 1468 1468 1468 1471 1472 1472 1474 1478 1480 1484 1488 1491 1495 1500 1504 1506 1508 1510 1512 1514 1516 1516 1518 1519 1518 1517 1517 1516 1515 1514 1513 1512 1511 1511 1510 1510
1459 1460 1461 1462 1463 1464 1465 1465 1466 1467 1467 1467 1470 1473 1476 1481 1485 1488 1491 1495 1498 1502 1505 1507 1509 1511 1512 1512 1513 1514 1514 1514 1513 1512 1512 1511 1510 1509 1508 1508 1507 1507
1457 1458 1459 1460 1461 1461 1463 1464 1465 1466 1466 1467 1470 1474 1476 1479 1482 1484 1488 1492 1496 1499 1503 1505 1507 1508 1509 1509 1510 1510 1511 1510 1509 1508 1508 1508 1507 1506 1505 1505 1504 1504
1455 1456 1457 1458 1458 1459 1459 1460 1462 1465 1467 1469 1471 1474 1477 1479 1481 1485 1489 1492 1495 1498 1501 1503 1504 1504 1505 1505 1506 1507 1507 1506 1505 1504 1504 1505 1504 1504 1503 1502 1501 1501